AirNav   Get a free Bose Revolve speaker with A20 purchase
 
 1609 users online  

54T RWJ Airpark
Baytown, Texas, USA

GOING TO BAYTOWN?


FAA INFORMATION EFFECTIVE 19 JULY 2018

Location

FAA Identifier: 54T
Lat/Long: 29-45-42.8200N / 094-50-52.5800W
29-45.713667N / 094-50.876333W
29.7618944 / -94.8479389
(estimated)
Elevation: 33 ft. / 10 m (estimated)
Variation: 05E (1985)
From city: 7 miles E of BAYTOWN, TX
Time zone: UTC -5 (UTC -6 during Standard Time)
Zip code: 77520

Airport Operations

Airport use: Open to the public
Activation date: 02/1977
Control tower: no
ARTCC: HOUSTON CENTER
FSS: MONTGOMERY COUNTY FLIGHT SERVICE STATION
NOTAMs facility: CXO (NOTAM-D service available)
Attendance: MON-FRI 0800-1800
Wind indicator: yes
Segmented circle: no
Lights: SS-SR
Beacon: white-green (lighted land airport)
Operates sunset to sunrise.

Airport Communications

CTAF/UNICOM: 122.7
HOUSTON APPROACH: 134.45
HOUSTON DEPARTURE: 134.45
BORRN DP: 134.45
DREMR DP: 134.45
INDIE DP: 134.45
KARRR DP: 134.45
LURIC DP: 134.45
MMALT DP: 134.45
STRYA DP: 134.45
STYCK DP: 134.45
WATFO DP: 134.45
WYLSN DP: 134.45

Nearby radio navigation aids

VOR radial/distance  VOR name  Freq  Var
MHFr331/14.0TRINITY VOR/DME113.6007E
HUBr069/23.2HOBBY VOR/DME117.1005E
DASr197/27.8DAISETTA VORTAC116.9005E
IAHr109/28.4HUMBLE VORTAC116.6005E
VUHr356/29.6SCHOLES VOR/DME113.0006E

 
NDB name  Hdg/Dist  Freq  Var  ID
NIXIN121/23.632605EBVP -... ...- .--.
GALVESTON341/26.120608EGLS --. .-.. ...
GOODHUE234/37.936807EGDE --. -.. .

Airport Services

Fuel available: 100LL JET-A
Parking: hangars and tiedowns
Airframe service: NONE
Powerplant service: NONE

Runway Information

Runway 8/26

Dimensions: 5035 x 40 ft. / 1535 x 12 m
EAST 1100 FT 60 FT WIDE.
Surface: asphalt, in fair condition
Weight bearing capacity: 
Single wheel: 6.0
Runway edge lights: low intensity
LIRL LCTD 15 FT FM RY EDGE WEST 3935 FT.
Runway edge markings: RY 08/26 NRS 35 FT TALL; THLD BAR 15 INCHES WIDE; DSPLCD THLD MKGS NSTD.
RUNWAY 8  RUNWAY 26
Latitude: 29-45.692283N29-45.706400N
Longitude: 094-51.266617W094-50.314733W
Elevation: 29.8 ft.26.7 ft.
Traffic pattern: leftleft
Runway heading: 084 magnetic, 089 true264 magnetic, 269 true
Displaced threshold: no939 ft.
Markings: NSTD, in fair conditionNSTD, in fair condition
Touchdown point: yes, no lightsyes, no lights
Obstructions: 18 ft. bldg, 300 ft. from runway, 168 ft. left of centerline, 5:1 slope to clear75 ft. tower, 650 ft. from runway, 100 ft. left of centerline, 6:1 slope to clear
+15 FT RD 0-200 FT FM THLD 60 FT R CNTRLN; +4 FT FENCE 0-200 FT FM THLD 92 FT R CNTRLN.

Runway 14/32

Dimensions: 3532 x 100 ft. / 1077 x 30 m
Surface: turf, in fair condition
Weight bearing capacity: 
Single wheel: 4.0
RUNWAY 14  RUNWAY 32
Latitude: 29-45.980100N29-45.488450N
Longitude: 094-51.178733W094-50.820383W
Elevation: 33.0 ft.28.0 ft.
Traffic pattern: leftleft
Runway heading: 143 magnetic, 148 true323 magnetic, 328 true
Touchdown point: no, no lightsyes, no lights
Obstructions: 15 ft. road, 50 ft. left of centerline
APCH RATIO 16:1 FM DSPLCD THLD OVER 51 FT TREES, 837 FT DSTC, 95 FT R.
35 ft. trees, 125 ft. from runway, 3:1 slope to clear

Airport Ownership and Management from official FAA records

Ownership: Privately-owned
Owner: RWP PROPERTY OWNERS ASSOCIATION
15814 SUNDOWNER
MOUNT BELVIEU, TX 77580
Phone (281) 573-9609
Manager: JIM MOORE
15814 SUNDOWNER
BAYTOWN, TX 77520
Phone (281) 573-9609

Airport Operational Statistics

Aircraft based on the field: 45
Single engine airplanes: 30
Multi engine airplanes: 3
Ultralights: 12
    
Aircraft operations: avg 25/day *
68% local general aviation
32% transient general aviation
* for 12-month period ending 31 December 2016

Additional Remarks

TWY TOO NARROW FOR SOME ACFT USE EXTREME CARE. TWIN ENGINE ACFT PROHIBIT ON TWY.
FOR ARPT COND & SERVICES CALL 281-383-2320.
RY 08 28 FT PLINE (MKD & LIGHTED), 468 FT FM RWY END
FOR CD CTC HOUSTON APCH AT 281-443-5844 TO CNL IFR CALL 281-443-5888.

Instrument Procedures

NOTE: All procedures below are presented as PDF files. If you need a reader for these files, you should download the free Adobe Reader.

NOT FOR NAVIGATION. Please procure official charts for flight.
FAA instrument procedures published for use from 19 July 2018 at 0901Z to 16 August 2018 at 0900Z.

 
STARs - Standard Terminal Arrivals
BLUBELL THREE   download (296KB)
CESAN FOUR (RNAV)   2 pages: [1] [2] (361KB)
HUDZY THREE **CHANGED**   2 pages: [1] [2] (328KB)
OHIIO FOUR   download (294KB)
TCHDN TWO   2 pages: [1] [2] (357KB)
TKNIQ TWO (RNAV)   2 pages: [1] [2] (285KB)
WAPPL FOUR (RNAV)   2 pages: [1] [2] (379KB)
WAPPL FOUR (RNAV), CONT.2   download (264KB)
 
IAPs - Instrument Approach Procedures
RNAV (GPS) RWY 26   download (178KB)
 
Departure Procedures
BLTWY FIVE (RNAV) **NEW**   download (155KB)
BORRN THREE (RNAV)   2 pages: [1] [2] (282KB)
HOODO FIVE (RNAV)   2 pages: [1] [2] (240KB)
INDIE SIX (RNAV) **NEW**   download (179KB)
KARRR FOUR (RNAV)   2 pages: [1] [2] (232KB)
LURIC SIX (RNAV) **NEW**   download (199KB)
MMALT FOUR (RNAV) **NEW**   download (218KB)
STRYA SIX (RNAV) **NEW**   download (186KB)
STYCK SIX (RNAV) **NEW**   download (176KB)
WATFO FOUR (RNAV)   download (165KB)
WYLSN SIX (RNAV) **NEW**   download (165KB)
NOTE: Special Take-Off Minimums/Departure Procedures apply   download

Other nearby airports with instrument procedures:

KHPY - Baytown Airport (6 nm W)
T00 - Chambers County Airport (10 nm E)
T41 - La Porte Municipal Airport (13 nm SW)
KEFD - Ellington Airport (19 nm SW)
T78 - Liberty Municipal Airport (20 nm N)
 
Loc | Ops | Rwys | IFR | FBO | Links
Com | Nav | Svcs | Stats | Notes


 
Area around 54T (RWJ Airpark)
 
Road maps at: MapQuest Bing Google
 
Aerial photo
WARNING: Photo may not be current or correct
Aerial photo of 54T (RWJ Airpark)
Photo taken 20-Mar-2008

Do you have a better or more recent aerial photo of RWJ Airpark that you would like to share? If so, please send us your photo.

 
Sectional chart

 
Airport distance calculator
Flying to RWJ Airpark? Find the distance to fly.

From to 54T

Sunrise and sunset
Times for 23-Jul-2018
 Local
(UTC-5)
 Zulu
(UTC)
Morning civil twilight06:0811:08
Sunrise06:3411:34
Sunset20:1701:17
Evening civil twilight20:4401:44

Current date and time
Zulu (UTC)  23-Jul-2018 18:21:45
Local (UTC-5)  23-Jul-2018 13:21:45
 
METAR
KEFD 
19nm SW 
231650Z 25010KT 10SM FEW180 33/22 A2994
KHOU 
24nm W 
231753Z 23007KT 210V280 10SM SCT180 SCT250 34/22 A2989 RMK AO2 SLP127 T03390217 10344 20267 58005
KLVJ 
26nm SW 
231753Z AUTO 27007KT 10SM CLR 34/22 A2992 RMK AO2 SLP129 T03440217 10344 20267 58006
KGLS 
30nm S 
231752Z 20010KT 10SM CLR 32/27 A2991 RMK AO2 SLP127 T03220267 10339 20272 58004
KIAH 
31nm NW 
231753Z 27007KT 10SM BKN170 BKN250 34/21 A2990 RMK AO2 SLP123 ACC SE T03390211 10356 20267 58005
KAXH 
36nm SW 
231755Z AUTO 24004KT 10SM CLR 34/23 A2991 RMK AO2 T03350229 10335 20250
K6R3 
37nm N 
231755Z AUTO 25005KT 7SM CLR 34/21 A2990 RMK AO2 T03400206 10340 20255
KBMT 
38nm NE 
231755Z AUTO 28004KT 10SM CLR 33/23 A2990 RMK AO2 T03290232 10329 20261
TAF
KEFD 
19nm SW 
231200Z 2312/2418 22009KT 9999 BKN010 QNH2986INS BECMG 2314/2315 24012KT 9999 FEW150 QNH2980INS BECMG 2402/2403 20006KT 9999 FEW150 SCT250 QNH2987INS TX37/2321Z TN25/2312Z
KHOU 
24nm W 
231720Z 2318/2418 26008KT P6SM FEW190 FM240200 21005KT P6SM BKN250 FM240900 04005KT P6SM SCT012 BKN100 FM241500 06008KT P6SM BKN100
NOTAMs
Click for the latest NOTAMs
NOTAMs are issued by the DoD/FAA and will open in a separate window not controlled by AirNav.

 

 
 

FBO, Fuel Providers, and Aircraft Ground Support

  
 Business Name 
 
 Contact 
 
 Services / Description 
 
Fuel Prices
 
Comments
  
Bay Area Aviation 281-383-2320
no information available

If you are affiliated with Bay Area Aviation and would like to show here your services, contact info, web link, logo, and more, click here
100LL Jet A
SS $4.65 $3.25 
 Updated 10-Jul-2018
 
   write
SS=Self service
Update Fuel Prices
 

Would you like to see your business listed on this page?

 If your business provides an interesting product or service to pilots, flight crews, aircraft, or users of the RWJ Airpark, you should consider listing it here.  To start the listing process, click on the button below
 
Add a business
 

Other Pages about RWJ Airpark

Update a link
 
Copyright © AirNav, LLC. All rights reserved. Privacy Policy  Contact